User: anonymous   Login
Location: Unspecified
(0.0000°N, 0.0000°E)
Time: 08:59:39
(UTC+00:00)
Language:

USA 142 - Orbit

View from above orbital plane
View from above orbital plane
View from above satellite
View from above satellite

Ground track
Ground track

The orbit data is extracted from the following two-line orbital elements,

1 25669U 99017A   18110.79159438 0.00000000  00000-0  00000-0 0    04
2 25669  29.3747  12.3397 7078276 291.5726  10.2391  2.32912974    01
Epoch (UTC): 20 April 2018 18:59:53
Eccentricity: 0.7078276
inclination: 29.3747°
perigee height: 646 km
apogee height: 34678 km
right ascension of ascending node: 12.3397°
argument of perigee: 291.5726°
revolutions per day: 2.32912974
mean anomaly at epoch: 10.2391°
orbit number at epoch: 0

The dashed part of the orbit path shows where the satellite is in the earth's shadow,  

DLR